Location: Malvern Link
(52.1333°N, 2.3000°W)
Time: 04:32:22
(UTC+00:00)

Envisat - Pass Details

Date: 25 January 2022
Orbit: 764 x 765 km, 98.2° (Epoch: 25 May)

Event Time Altitude Azimuth Distance (km) Brightness Sun altitude
Rises 17:54:21 0° 227° (SW) 3,223 7.5 -10.7°
Reaches altitude 10° 17:58:55 10° 265° (W) 2,305 6.9 -11.4°
Maximum altitude 17:59:59 11° 278° (W) 2,264 6.6 -11.5°
Drops below altitude 10° 18:01:04 10° 290° (WNW) 2,309 6.3 -11.7°
Sets 18:05:40 0° 329° (NNW) 3,243 6.5 -12.4°
